• In Uzbekistan
  • List of Countries
  • For 7 days
  • Water Temperature
  • Satellite Maps
  • Weather Map
  • Weather Widgets
  • user-avatar
    Login

    Hourly Weather Korfu

    Today, 13 December, Wednesday

    Time Temperature Precipitation Wind Pressure Humidity
    00:00 +12°C° 0.1 mm 5 mps 763 mmHg 90%
    01:00 +12°C° 0 mm 5 mps 763 mmHg 91%
    02:00 +12°C° 0.1 mm 5 mps 763 mmHg 92%
    03:00 +12°C° 0.1 mm 5 mps 763 mmHg 93%
    04:00 +12°C° 0.1 mm 5 mps 763 mmHg 93%
    05:00 +12°C° 0 mm 5 mps 763 mmHg 94%
    06:00 +12°C° 0 mm 5 mps 763 mmHg 94%
    07:00 +12°C° 0 mm 5 mps 763 mmHg 94%
    08:00 +13°C° 0 mm 5 mps 763 mmHg 91%
    09:00 +14°C° 0 mm 6 mps 763 mmHg 88%
    10:00 +15°C° 0 mm 6 mps 763 mmHg 85%
    11:00 +15°C° 0.1 mm 6 mps 762 mmHg 83%
    12:00 +15°C° 0.1 mm 6 mps 762 mmHg 82%
    13:00 +16°C° 0 mm 6 mps 762 mmHg 80%
    14:00 +15°C° 0.1 mm 6 mps 761 mmHg 83%
    15:00 +15°C° 0.1 mm 6 mps 761 mmHg 87%
    16:00 +14°C° 0.1 mm 6 mps 761 mmHg 90%
    17:00 +14°C° 0.1 mm 6 mps 761 mmHg 91%
    18:00 +14°C° 0.1 mm 6 mps 761 mmHg 92%
    19:00 +13°C° 0.1 mm 6 mps 761 mmHg 94%
    20:00 +13°C° 0.6 mm 6 mps 761 mmHg 94%
    21:00 +13°C° 0.6 mm 5 mps 760 mmHg 94%
    22:00 +13°C° 0.6 mm 4 mps 760 mmHg 95%
    23:00 +13°C° 0.6 mm 3 mps 760 mmHg 95%

    Tomorrow, 14 December, Thursday

    Time Temperature Precipitation Wind Pressure Humidity
    00:00 +13°C° 0.6 mm 3 mps 760 mmHg 95%
    01:00 +14°C° 0.6 mm 2 mps 760 mmHg 95%
    02:00 +14°C° 0.2 mm 2 mps 760 mmHg 94%
    03:00 +13°C° 0.2 mm 2 mps 759 mmHg 93%
    04:00 +13°C° 0.2 mm 2 mps 759 mmHg 92%
    05:00 +12°C° 0 mm 3 mps 759 mmHg 92%
    06:00 +11°C° 0 mm 3 mps 759 mmHg 92%
    07:00 +11°C° 0 mm 4 mps 759 mmHg 92%
    08:00 +12°C° 0 mm 4 mps 760 mmHg 87%
    09:00 +13°C° 0 mm 3 mps 760 mmHg 83%
    10:00 +14°C° 0 mm 3 mps 760 mmHg 78%
    11:00 +14°C° 0 mm 3 mps 760 mmHg 73%
    12:00 +15°C° 0 mm 2 mps 760 mmHg 68%
    13:00 +16°C° 0 mm 2 mps 760 mmHg 63%
    14:00 +15°C° 0 mm 2 mps 760 mmHg 66%
    15:00 +14°C° 0 mm 2 mps 760 mmHg 70%
    16:00 +13°C° 0 mm 2 mps 760 mmHg 73%
    17:00 +13°C° 0 mm 2 mps 760 mmHg 75%
    18:00 +12°C° 0 mm 2 mps 760 mmHg 77%
    19:00 +12°C° 0 mm 2 mps 760 mmHg 79%
    20:00 +10°C° 0 mm 2 mps 760 mmHg 80%
    21:00 +10°C° 0 mm 3 mps 760 mmHg 81%
    22:00 +10°C° 0 mm 4 mps 760 mmHg 82%
    23:00 +10°C° 0 mm 4 mps 760 mmHg 82%

    Day after tomorrow, 15 December, Friday

    Time Temperature Precipitation Wind Pressure Humidity
    00:00 +10°C° 0 mm 4 mps 760 mmHg 81%
    01:00 +8°C° 0 mm 5 mps 760 mmHg 81%
    02:00 +8°C° 0 mm 5 mps 760 mmHg 81%
    03:00 +8°C° 0 mm 5 mps 759 mmHg 81%
    04:00 +8°C° 0 mm 5 mps 759 mmHg 81%
    05:00 +8°C° 0 mm 5 mps 759 mmHg 82%
    06:00 +9°C° 0 mm 5 mps 759 mmHg 83%
    07:00 +9°C° 0 mm 6 mps 759 mmHg 84%
    08:00 +10°C° 0 mm 6 mps 759 mmHg 84%
    09:00 +11°C° 0 mm 6 mps 759 mmHg 83%
    10:00 +12°C° 0 mm 7 mps 759 mmHg 83%
    11:00 +12°C° 0.1 mm 7 mps 758 mmHg 85%
    12:00 +12°C° 0.1 mm 7 mps 758 mmHg 88%
    13:00 +12°C° 0.1 mm 8 mps 757 mmHg 90%
    14:00 +12°C° 0.2 mm 7 mps 757 mmHg 91%
    15:00 +11°C° 0.2 mm 7 mps 757 mmHg 92%
    16:00 +11°C° 0.2 mm 7 mps 757 mmHg 93%
    17:00 +11°C° 0.2 mm 7 mps 757 mmHg 93%
    18:00 +11°C° 0.2 mm 7 mps 757 mmHg 93%
    19:00 +12°C° 0.2 mm 7 mps 757 mmHg 94%
    20:00 +12°C° 0.2 mm 7 mps 757 mmHg 94%
    21:00 +12°C° 0.2 mm 7 mps 757 mmHg 94%
    22:00 +12°C° 0.2 mm 7 mps 757 mmHg 95%
    23:00 +12°C° 0.1 mm 7 mps 756 mmHg 95%

    16 December, Saturday

    Time Temperature Precipitation Wind Pressure Humidity
    00:00 +12°C° 0.1 mm 7 mps 756 mmHg 95%
    01:00 +12°C° 0.1 mm 7 mps 756 mmHg 95%
    02:00 +12°C° 0.1 mm 7 mps 756 mmHg 96%
    03:00 +12°C° 0.1 mm 7 mps 755 mmHg 96%
    04:00 +14°C° 0.1 mm 7 mps 755 mmHg 96%
    05:00 +14°C° 0.1 mm 7 mps 755 mmHg 96%
    06:00 +14°C° 0.1 mm 7 mps 755 mmHg 96%
    07:00 +14°C° 0.1 mm 7 mps 755 mmHg 96%
    08:00 +14°C° 0.1 mm 7 mps 755 mmHg 95%
    09:00 +14°C° 0.1 mm 7 mps 755 mmHg 94%
    10:00 +15°C° 0.1 mm 7 mps 755 mmHg 93%
    11:00 +15°C° 0.7 mm 7 mps 754 mmHg 92%
    12:00 +15°C° 0.7 mm 7 mps 753 mmHg 91%
    13:00 +14°C° 0.7 mm 7 mps 753 mmHg 90%
    14:00 +13°C° 1.2 mm 9 mps 752 mmHg 90%
    15:00 +13°C° 1.2 mm 10 mps 752 mmHg 91%
    16:00 +13°C° 1.2 mm 11 mps 751 mmHg 91%
    17:00 +13°C° 6.9 mm 11 mps 751 mmHg 93%
    18:00 +13°C° 6.9 mm 12 mps 750 mmHg 94%
    19:00 +13°C° 6.9 mm 12 mps 750 mmHg 96%
    20:00 +13°C° 7.7 mm 11 mps 750 mmHg 96%
    21:00 +12°C° 7.7 mm 10 mps 749 mmHg 96%
    22:00 +12°C° 7.7 mm 9 mps 749 mmHg 96%
    23:00 +12°C° 1.8 mm 9 mps 749 mmHg 95%

    17 December, Sunday

    Time Temperature Precipitation Wind Pressure Humidity
    00:00 +12°C° 1.8 mm 8 mps 750 mmHg 95%
    01:00 +12°C° 1.8 mm 7 mps 750 mmHg 94%
    02:00 +12°C° 0.1 mm 7 mps 750 mmHg 94%
    03:00 +11°C° 0.1 mm 7 mps 751 mmHg 93%
    04:00 +11°C° 0.1 mm 7 mps 752 mmHg 93%
    05:00 +11°C° 0.1 mm 6 mps 752 mmHg 90%
    06:00 +10°C° 0.1 mm 6 mps 753 mmHg 88%
    07:00 +10°C° 0.1 mm 5 mps 754 mmHg 86%
    08:00 +11°C° 0 mm 4 mps 755 mmHg 81%
    09:00 +11°C° 0 mm 4 mps 755 mmHg 76%
    10:00 +12°C° 0 mm 3 mps 756 mmHg 72%
    11:00 +12°C° 0.1 mm 4 mps 756 mmHg 70%
    12:00 +12°C° 0.1 mm 4 mps 756 mmHg 69%
    13:00 +12°C° 0.1 mm 4 mps 756 mmHg 67%
    14:00 +12°C° 0.1 mm 4 mps 756 mmHg 71%
    15:00 +11°C° 0.1 mm 4 mps 757 mmHg 75%
    16:00 +10°C° 0.1 mm 4 mps 757 mmHg 78%
    17:00 +10°C° 0 mm 4 mps 758 mmHg 80%
    18:00 +8°C° 0 mm 5 mps 758 mmHg 82%
    19:00 +8°C° 0 mm 5 mps 759 mmHg 84%
    20:00 +8°C° 0 mm 5 mps 759 mmHg 84%
    21:00 +8°C° 0 mm 5 mps 760 mmHg 84%
    22:00 +8°C° 0 mm 5 mps 760 mmHg 84%
    23:00 +7°C° 0 mm 6 mps 760 mmHg 84%

    18 December, Monday

    Time Temperature Precipitation Wind Pressure Humidity
    00:00 +7°C° 0 mm 6 mps 761 mmHg 84%
    01:00 +5°C° 0 mm 6 mps 761 mmHg 84%
    02:00 +5°C° 0 mm 6 mps 761 mmHg 84%
    03:00 +5°C° 0 mm 6 mps 761 mmHg 84%
    04:00 +5°C° 0 mm 6 mps 761 mmHg 84%
    05:00 +5°C° 0 mm 6 mps 762 mmHg 84%
    06:00 +4°C° 0 mm 6 mps 762 mmHg 84%
    07:00 +5°C° 0 mm 5 mps 762 mmHg 84%
    08:00 +6°C° 0 mm 5 mps 763 mmHg 79%
    09:00 +7°C° 0 mm 5 mps 763 mmHg 74%
    10:00 +8°C° 0 mm 5 mps 763 mmHg 69%
    11:00 +8°C° 0.1 mm 6 mps 763 mmHg 67%
    12:00 +9°C° 0.1 mm 6 mps 763 mmHg 65%
    13:00 +9°C° 0.1 mm 7 mps 762 mmHg 63%
    14:00 +8°C° 0.1 mm 7 mps 763 mmHg 66%
    15:00 +6°C° 0.1 mm 7 mps 763 mmHg 69%
    16:00 +5°C° 0.1 mm 7 mps 763 mmHg 71%
    17:00 +5°C° 0.1 mm 7 mps 763 mmHg 72%
    18:00 +4°C° 0.1 mm 7 mps 763 mmHg 73%
    19:00 +3°C° 0.1 mm 7 mps 764 mmHg 74%
    20:00 +3°C° 0 mm 7 mps 764 mmHg 75%
    21:00 +3°C° 0 mm 7 mps 764 mmHg 75%
    22:00 +2°C° 0 mm 7 mps 765 mmHg 76%
    23:00 +2°C° 0 mm 6 mps 765 mmHg 76%
    Show more